Wind_Speed
13 10 7 3 2 2 4 5 6 15 14 17 20 15 19 16 9 13 22 22 22 19 14 12 12 11 12 12 13 13 13 13 13 14 14 15 15 16 16 15 14 14 13 12 12 11 11 10 9
13 9 3 3 2 6 8 11 13 15 16 14 14 19 20 18 17 19 18 28 22 18 17 13 14 13 13 12 13 12 13 13 13 14 14 15 15 15 15 15 13 12 12 11 10 10 9 9 8
5 9 2 0 4 9 10 13 15 17 14 15 7 14 10 17 17 20 27 26 23 20 17 15 13 12 13 13 13 12 12 13 13 13 13 14 13 13 13 12 11 10 10 9 8 9 8 8 7
8 2 2 2 3 17 15 16 19 15 14 19 16 13 17 20 19 25 30 23 21 19 18 15 14 13 13 13 12 11 12 11 12 13 12 12 12 11 10 9 9 9 8 8 8 8 8 8 7
9 2 2 4 15 14 14 18 15 14 13 10 21 17 14 26 25 22 21 18 25 21 18 15 14 14 13 11 13 11 10 10 10 10 10 10 10 9 8 7 7 7 7 7 9 9 8 7 6
3 2 3 2 16 14 17 16 17 13 12 18 21 19 14 22 23 21 18 19 20 19 18 15 15 13 12 11 11 11 9 9 9 8 8 9 8 8 8 7 6 6 6 6 6 7 9 8 8
6 2 5 3 14 14 13 11 16 10 10 16 19 18 14 16 20 20 17 24 20 19 18 15 13 11 11 10 10 10 9 8 7 7 7 8 7 7 7 7 6 7 6 5 7 10 10 10 12
6 8 7 2 13 12 14 6 11 10 9 17 19 9 18 19 21 20 15 17 18 17 19 19 12 12 11 9 10 9 7 7 7 7 8 9 9 11 8 8 6 6 5 5 7 12 13 15 16
9 4 3 6 4 11 14 13 9 9 7 9 9 23 24 24 22 20 19 17 15 15 20 17 15 12 12 9 8 9 7 7 4 2 6 6 5 7 8 6 9 8 6 9 9 10 16 19 21
5 1 2 11 3 7 8 6 16 12 13 10 16 23 28 25 23 20 18 18 17 12 17 15 14 15 13 11 6 8 3 6 3 3 6 4 7 11 11 12 13 10 8 3 11 10 16 12 16
5 5 7 5 6 21 16 11 11 11 3 15 23 24 22 24 22 20 19 18 17 17 15 15 16 15 11 10 6 10 8 6 8 4 4 3 8 12 10 11 20 6 5 4 6 10 15 13 12
6 6 7 4 7 10 13 13 9 12 12 2 20 22 21 20 17 19 21 18 18 17 17 17 14 14 15 8 9 8 10 7 11 10 4 4 5 16 11 4 27 16 20 3 9 13 10 11 9
3 14 5 11 3 5 13 14 7 11 14 5 20 20 20 18 20 19 20 20 19 16 16 20 14 11 7 12 7 11 9 12 15 11 11 3 5 8 8 7 9 25 6 5 13 11 5 13 12
10 11 2 11 13 11 4 11 20 19 21 18 20 20 19 18 19 20 20 19 20 17 17 17 13 11 9 9 9 6 14 10 16 14 7 5 6 7 3 5 11 11 9 17 15 6 10 13 9
14 9 12 15 16 12 15 2 11 11 20 18 18 17 18 17 21 19 21 20 21 19 19 18 16 13 9 8 6 1 10 13 12 10 5 6 5 5 8 14 13 10 11 11 10 6 6 8 11
15 10 5 15 17 9 15 7 12 17 17 18 17 15 17 18 20 21 20 20 22 21 22 19 18 17 12 10 7 7 6 11 16 14 7 6 7 9 13 14 10 9 14 11 8 9 3 15 10
15 12 13 1 15 5 13 4 15 18 9 17 17 13 14 17 18 20 21 21 23 23 24 19 19 18 14 10 7 4 5 6 14 16 12 6 5 8 15 12 7 11 10 11 10 5 4 4 11
9 2 9 11 2 12 12 4 20 22 15 14 17 20 16 17 18 22 22 21 23 25 23 18 18 19 17 15 7 7 6 4 8 17 14 2 6 8 11 7 10 14 13 8 7 8 4 2 11
17 14 9 13 16 10 3 15 16 20 17 19 16 16 17 19 18 24 23 23 24 25 24 18 19 20 17 13 13 12 12 11 16 15 9 8 3 5 8 8 7 8 8 9 4 5 8 7 7
19 13 14 10 17 14 21 22 26 29 26 24 23 18 19 20 19 21 24 26 26 26 25 20 17 23 18 18 18 17 13 10 16 15 10 7 5 4 8 11 8 7 10 6 3 4 3 5 6
21 19 13 12 15 22 23 22 26 20 21 21 22 21 20 20 21 19 21 26 28 29 29 25 22 25 22 17 15 7 9 13 19 14 10 9 6 7 7 9 7 5 12 7 4 4 5 4 6
20 17 12 19 19 7 11 8 22 21 17 16 20 22 20 20 20 19 21 25 28 30 29 29 26 26 26 17 14 12 12 13 12 11 16 13 8 6 7 7 6 7 10 6 7 4 6 5 7
21 19 13 16 10 12 9 9 4 15 13 18 15 21 22 21 21 21 22 26 26 30 31 28 29 25 25 21 16 16 9 14 17 18 18 13 11 8 8 7 5 6 8 7 6 5 6 5 8
22 19 14 11 15 13 13 12 14 19 23 23 20 18 20 21 21 21 27 28 27 29 32 29 30 26 26 26 19 19 19 14 16 20 17 15 14 10 7 8 6 6 9 7 5 7 5 6 5
24 18 9 12 12 13 15 13 7 11 16 12 20 20 18 21 21 20 21 24 28 28 32 32 32 28 27 27 20 18 22 14 8 19 17 19 19 19 15 11 8 7 6 5 4 6 6 4 4
25 22 14 13 13 15 15 16 9 19 9 7 17 11 17 18 21 22 23 27 29 28 31 33 34 31 29 26 24 20 20 14 11 17 15 13 15 17 17 13 8 8 7 6 5 5 4 2 2
25 20 22 23 20 12 13 18 17 17 13 12 18 18 18 28 20 24 25 31 33 32 30 34 36 34 31 28 26 25 22 21 17 17 22 11 11 18 16 13 12 10 10 8 6 10 7 5 5
30 15 21 16 21 14 18 5 8 10 14 14 11 9 4 6 2 8 22 30 34 35 32 32 36 36 34 31 27 26 27 27 21 20 17 17 14 9 17 15 14 13 12 11 9 10 10 7 8
22 22 22 16 17 15 15 11 22 7 14 13 13 14 10 9 1 7 19 31 34 34 33 33 31 36 34 33 30 28 27 28 30 22 19 23 15 18 13 16 15 15 14 13 12 10 8 8 8
29 23 24 12 20 14 16 15 13 16 18 12 13 11 13 11 12 6 7 25 31 31 33 33 32 35 36 34 30 31 29 29 29 28 22 20 25 15 23 15 17 15 16 16 15 14 12 15 15
Wind_Direction
157 169 200 234 219 218 158 120 136 117 92 70 60 73 72 44 53 110 156 117 126 121 122 114 114 108 105 99 94 96 99 97 95 94 94 96 94 96 96 98 99 95 93 89 84 83 80 80 85
163 161 206 260 239 143 120 139 128 99 92 88 82 78 67 74 100 127 119 113 119 121 126 115 116 110 105 100 100 99 100 98 93 93 94 92 95 94 96 99 100 96 93 93 91 90 89 87 89
190 190 270 82 272 126 126 131 109 101 142 104 102 71 76 117 116 115 120 118 120 124 120 117 117 108 109 108 111 104 95 94 97 95 95 95 97 95 98 102 103 101 95 97 110 104 100 104 107
210 188 263 266 144 134 131 122 118 135 92 82 94 77 105 103 111 126 125 124 128 126 118 125 115 115 116 110 110 104 105 100 98 99 102 106 107 109 111 113 114 111 115 120 118 112 114 111 109
206 215 237 244 152 124 130 130 118 96 85 97 106 106 101 112 126 135 134 128 135 118 119 121 116 122 118 115 119 107 109 104 106 111 117 117 117 120 122 123 126 133 136 131 125 122 129 131 120
75 33 289 237 116 126 120 145 100 101 94 93 102 118 104 118 138 138 138 142 129 119 121 126 126 121 120 122 125 116 113 118 118 125 123 121 121 126 130 130 134 127 136 141 133 107 138 142 136
151 85 287 132 107 123 118 115 109 110 112 115 127 122 128 147 140 131 146 115 117 123 130 131 133 134 130 133 130 129 134 136 133 136 125 127 127 129 124 125 127 126 134 119 108 109 115 123 145
245 137 323 174 139 143 101 102 108 132 137 124 128 137 149 141 143 138 133 113 123 141 142 135 135 135 139 138 138 139 151 153 154 150 145 137 132 109 106 102 112 118 120 118 115 113 115 119 126
342 336 76 303 183 128 138 129 122 152 144 127 101 135 142 151 138 147 132 130 138 155 137 130 142 145 150 157 141 142 150 157 134 128 143 151 144 118 88 117 125 125 131 116 107 112 121 119 114
35 295 200 148 252 195 133 187 156 173 137 118 133 129 137 151 154 147 151 146 150 153 142 139 152 148 164 154 156 162 158 116 139 295 200 127 149 131 133 126 124 113 119 118 116 112 114 108 137
168 246 173 148 248 224 163 163 170 132 147 142 133 141 151 156 159 156 160 156 153 157 160 148 144 154 167 135 174 171 157 141 125 99 37 153 127 144 145 156 118 133 82 185 181 156 141 138 159
163 152 198 148 157 145 166 151 156 181 146 145 141 147 157 163 161 165 151 162 154 155 148 148 135 159 167 144 169 127 158 144 87 54 72 25 145 86 95 354 132 99 136 188 185 194 202 219 197
154 151 185 167 162 67 360 169 138 152 124 195 145 156 162 168 162 166 150 154 152 158 147 129 131 157 165 155 150 157 145 127 116 129 101 49 117 73 96 49 38 118 110 141 144 122 128 137 126
123 117 130 174 148 141 128 255 163 160 158 161 153 165 168 171 164 163 155 157 151 155 143 133 150 147 116 127 153 150 139 152 119 108 92 52 85 76 42 234 142 70 96 137 119 120 134 122 194
117 101 297 260 165 168 187 291 7 127 136 143 162 169 172 169 165 166 159 157 157 155 149 149 145 150 133 157 179 244 153 126 104 106 116 91 84 14 2 84 75 91 103 94 116 128 173 192 133
256 149 118 300 34 353 85 17 299 299 144 154 166 172 175 168 169 168 162 157 153 160 141 162 160 149 151 161 215 221 190 150 134 132 100 96 53 48 7 84 82 54 82 91 59 75 93 129 119
250 217 148 112 356 112 333 192 320 287 202 160 165 171 183 171 169 166 168 169 158 156 148 180 159 152 163 185 196 159 200 148 138 124 105 69 62 20 46 75 75 83 75 66 82 76 128 110 139
255 156 106 121 280 74 290 239 187 250 179 168 165 172 185 176 175 170 171 174 160 152 157 184 152 154 155 170 192 172 212 158 135 111 104 88 34 25 66 76 45 80 80 80 88 77 85 39 45
281 165 182 174 192 128 232 272 282 274 194 170 174 177 178 178 177 172 175 171 162 159 163 179 167 155 157 175 180 173 211 166 113 109 111 85 47 31 359 132 66 73 89 85 79 46 46 51 16
252 253 155 178 236 141 168 219 209 227 237 171 171 178 184 176 176 171 176 171 168 165 169 173 171 165 171 192 200 184 190 176 121 116 112 123 116 87 57 63 92 86 94 86 63 49 68 85 15
255 253 141 178 230 219 173 191 221 220 233 165 173 171 185 182 177 172 180 175 174 170 173 175 177 173 189 195 217 213 156 135 118 126 148 147 139 112 82 67 67 66 131 94 79 66 41 98 47
250 252 247 192 184 216 214 218 190 197 187 194 174 168 181 184 180 175 179 182 180 173 177 179 179 174 194 200 204 193 171 157 158 172 165 150 158 146 127 114 75 71 107 113 84 125 57 9 141
251 257 226 253 263 276 180 257 188 189 178 196 206 172 178 182 183 179 182 185 189 176 178 184 181 180 193 200 199 202 205 182 184 149 143 157 168 186 144 122 120 93 99 123 125 123 106 71 55
251 252 253 283 282 247 248 256 168 185 194 185 183 188 176 175 180 179 181 181 191 181 176 183 182 187 191 199 205 191 215 226 172 147 153 165 177 183 160 158 134 119 112 124 113 91 115 117 127
230 242 223 236 245 243 231 234 170 100 291 206 170 185 177 172 178 179 177 179 187 188 176 181 182 187 192 200 201 195 211 229 252 163 171 195 189 178 175 171 167 157 121 124 117 147 108 124 154
223 221 232 222 241 238 224 245 211 164 160 134 158 174 174 187 180 180 180 179 182 193 181 181 180 186 192 194 201 201 211 213 219 177 197 215 192 179 173 162 161 162 160 167 184 126 161 208 168
238 219 230 244 231 255 252 213 240 126 175 183 159 158 163 223 193 181 181 178 178 187 189 184 179 185 190 198 194 201 208 205 209 197 211 231 234 169 170 169 176 184 182 186 190 188 186 206 219
232 234 223 234 250 245 257 225 276 315 193 197 172 173 110 119 26 199 180 174 178 181 191 188 182 185 189 195 196 197 203 209 204 218 219 218 222 201 181 175 188 190 193 194 207 203 219 204 216
222 225 236 245 237 235 248 249 199 100 323 208 200 129 94 50 92 298 171 171 174 177 187 192 189 184 189 193 196 198 201 207 214 209 219 219 223 219 189 191 199 199 200 202 212 224 193 229 240
231 223 229 228 254 235 256 267 145 168 200 156 139 114 94 65 12 58 319 161 170 178 184 190 195 185 190 193 198 199 202 204 209 216 213 212 221 220 218 206 209 211 210 211 214 223 233 239 241
Height
755 758 760 760 778 774 765 754 725 732 731 719 720 734 754 752 759 796 777 780 786 792 797 800 801 803 804 806 806 808 808 809 811 812 813 814 815 817 818 819 820 821 821 822 822 822 822 821 821
756 758 760 759 777 770 761 735 737 730 728 725 728 736 753 768 759 767 776 782 787 793 797 801 802 804 806 807 808 809 810 812 813 814 815 816 817 818 819 820 821 821 822 822 823 823 823 822 822
755 756 763 765 772 765 759 732 730 729 727 728 742 741 753 769 763 768 778 784 789 794 798 801 803 806 807 807 809 811 812 814 815 816 817 817 818 819 820 821 821 822 822 822 822 823 823 824 823
754 756 756 773 770 739 736 729 728 731 728 734 743 762 757 762 769 775 780 785 790 795 799 802 805 807 807 809 811 812 814 814 816 817 818 818 819 820 820 821 821 821 821 821 821 823 823 824 824
750 754 772 772 746 728 725 724 725 738 743 743 749 770 769 765 772 777 781 785 791 797 800 803 806 808 809 811 812 813 814 815 816 817 817 819 820 820 820 819 819 819 820 821 821 822 823 824 824
762 770 775 775 743 731 725 721 729 740 741 748 757 770 771 772 775 779 781 785 790 797 801 805 807 809 811 811 812 814 815 815 816 815 817 818 818 818 818 818 819 820 821 823 823 823 823 823 824
759 777 776 754 748 741 735 721 735 750 749 751 750 774 772 772 776 779 783 786 792 798 803 806 808 810 812 812 814 815 815 815 815 814 816 816 816 817 819 822 823 824 824 824 824 824 824 824 824
736 766 781 750 755 755 734 739 734 744 750 736 743 771 777 773 777 783 785 788 794 799 802 806 808 811 813 813 814 814 813 813 813 813 814 816 818 822 825 828 830 830 830 829 827 825 825 827 827
726 748 790 777 755 747 732 740 738 737 739 740 742 755 763 773 779 783 787 793 797 798 802 806 809 810 813 815 814 813 811 815 822 820 817 818 822 826 830 830 830 832 833 832 833 831 828 828 831
753 762 758 747 752 745 739 744 739 744 745 750 748 755 766 773 779 783 787 793 796 798 801 806 808 810 812 815 814 813 813 822 819 823 821 820 823 823 825 825 828 830 833 837 836 837 836 834 834
758 755 741 737 738 739 732 735 733 742 755 748 755 759 766 772 776 782 784 791 796 799 801 805 807 810 812 815 814 815 813 817 828 826 823 820 824 825 823 822 825 824 835 834 838 838 837 832 835
743 728 728 733 724 739 738 733 742 742 746 746 750 758 764 770 773 778 782 789 794 798 800 804 808 810 813 814 816 818 816 819 818 817 819 824 822 813 826 817 805 811 826 830 835 834 836 834 835
719 726 725 721 728 735 741 739 748 745 745 748 753 760 765 768 772 776 781 787 793 797 801 804 809 810 813 816 816 820 818 823 822 822 823 824 826 826 828 821 813 814 829 833 835 835 832 830 836
708 720 725 721 731 740 756 758 738 741 742 747 754 760 763 766 771 775 780 785 792 797 802 806 810 811 812 816 817 819 821 821 824 825 827 827 825 826 829 829 832 833 834 834 834 831 831 836 835
712 741 735 732 728 737 746 765 757 732 735 749 756 760 761 764 769 775 780 785 791 797 802 807 810 813 813 814 817 818 821 823 826 827 827 827 826 829 830 832 835 835 835 834 832 831 831 835 836
721 735 776 750 749 748 751 788 768 746 740 752 756 759 760 763 768 774 780 785 791 796 801 807 809 812 815 815 816 819 819 821 823 826 828 828 828 825 825 830 835 835 834 833 832 833 833 835 836
720 741 765 773 754 784 779 805 764 747 743 748 755 760 760 762 766 773 780 785 790 795 800 806 808 812 815 816 816 818 819 820 822 823 826 827 828 828 828 830 831 832 832 833 834 836 836 835 837
734 734 749 776 776 789 797 783 767 749 741 746 748 754 757 760 764 771 777 784 790 795 801 805 808 812 815 816 817 818 819 819 821 823 825 827 827 828 828 828 829 830 832 835 836 836 837 837 837
716 733 748 758 756 776 800 801 783 762 735 743 746 748 750 755 760 768 774 782 788 795 800 804 808 811 814 816 818 819 818 820 822 824 827 829 830 829 829 829 830 830 832 835 836 836 836 836 837
716 723 739 746 737 759 786 793 761 744 740 724 734 744 746 749 755 763 771 777 785 792 798 803 807 810 814 815 816 818 819 820 822 825 829 831 833 832 832 832 833 834 835 836 837 838 838 839 839
715 719 736 751 734 736 760 784 773 735 722 716 719 729 739 743 750 758 766 772 780 786 793 799 805 809 811 813 815 817 817 821 823 827 830 833 834 834 835 835 836 837 838 838 839 839 839 840 841
727 697 706 722 743 749 712 756 747 729 721 714 714 721 731 737 743 752 760 767 773 781 790 795 801 806 809 811 815 816 817 820 823 825 829 832 834 835 837 837 838 839 838 840 840 840 840 841 842
716 694 706 710 724 723 728 740 735 719 733 723 710 711 720 727 736 745 754 763 770 777 785 793 797 803 807 809 813 815 816 819 822 825 828 832 834 835 836 838 839 839 840 841 841 841 841 841 842
694 705 709 719 725 751 726 731 748 717 719 709 705 705 709 718 728 737 748 759 766 772 780 789 795 800 805 807 811 814 816 818 821 823 826 831 833 834 836 837 839 840 840 841 841 842 842 842 842
703 719 753 770 759 756 713 727 720 712 701 691 697 700 701 708 717 728 739 750 760 766 773 783 791 796 802 805 809 812 814 818 820 822 825 826 829 831 834 836 838 839 840 841 841 842 842 842 842
707 714 742 781 770 744 710 735 712 692 687 682 690 692 694 703 707 717 728 740 753 761 767 776 784 792 798 802 806 810 812 815 818 820 823 824 826 827 830 833 836 838 839 840 841 841 841 842 842
707 717 704 731 722 733 717 704 685 684 691 684 687 695 704 699 696 703 714 728 740 753 762 769 777 785 793 799 802 807 810 813 815 818 821 822 824 824 827 830 833 836 838 839 840 841 841 840 840
694 695 727 720 761 770 733 737 737 716 696 687 687 689 691 688 691 695 702 716 730 742 755 764 771 778 785 794 798 803 808 810 813 816 818 821 822 824 825 828 831 833 836 837 838 839 838 838 838
699 704 706 706 715 747 752 729 697 714 710 690 687 687 693 695 696 695 693 707 722 735 747 757 765 772 780 787 792 797 802 807 810 812 815 818 820 822 825 826 829 831 833 834 835 836 836 835 835
682 695 700 728 744 714 720 716 680 693 694 678 682 686 694 698 700 699 697 702 716 728 739 750 759 766 773 780 786 791 797 802 805 808 811 814 816 820 822 825 826 828 829 831 831 832 833 833 833